SR8NGO-1 Weather Reports


time (UTC)temp
F
wind
direction
speed
knots
gust
knots
rain 1hr
in
rain 24hr
in
rain mn
in
humidity
%
barometer
mb
20260507015650 59 100 2.6 43.4 4.88 0.94 0.00 61 997.5
20260507015249 59 151 4.3 43.4 4.92 0.95 0.00 61 997.5
20260507014850 57 149 3.5 43.4 4.92 0.94 0.00 61 997.5
20260507014450 57 144 1.7 43.4 4.92 0.94 0.00 61 997.6
20260507014049 57 155 3.5 43.4 4.92 0.94 0.00 61 997.6
20260507013650 57 139 3.5 43.4 4.92 0.93 0.00 61 997.5
20260507013250 57 110 2.6 43.4 4.92 0.93 0.00 61 997.6
20260507012850 57 123 3.5 43.4 4.92 0.94 0.00 61 997.6
20260507012450 57 151 3.5 43.4 4.92 0.93 0.00 61 997.6
20260507012050 57 134 5.2 43.4 4.92 0.92 0.00 61 997.6
20260507011649 57 155 7.0 43.4 4.92 0.92 0.00 61 997.6
20260507011250 57 149 4.3 43.4 4.92 0.93 0.00 61 997.6
20260507010850 57 172 7.0 43.4 4.92 0.94 0.00 60 997.6
20260507010449 59 149 6.1 43.4 4.92 0.94 0.00 60 997.6
20260507010050 57 156 3.5 43.4 4.92 0.93 0.00 60 997.5
20260507005649 57 149 4.3 43.4 4.92 0.94 0.00 60 997.5
20260507005250 59 161 4.3 43.4 4.92 0.94 0.00 60 997.5
20260507004850 59 139 5.2 43.4 4.92 0.95 0.00 60 997.5
20260507004449 59 149 4.3 43.4 4.92 0.94 0.00 60 997.5
20260507004049 59 134 5.2 43.4 4.92 0.94 0.00 60 997.4
20260507003649 59 132 7.0 43.4 4.92 0.95 0.00 60 997.4
20260507003249 59 121 8.7 43.4 4.92 0.95 0.00 60 997.4
20260507002849 59 177 5.2 43.4 4.92 0.94 0.00 60 997.4
20260507002449 59 161 7.0 43.4 4.92 0.94 0.00 59 997.4
20260507002050 59 172 7.8 43.4 4.92 0.94 0.00 59 997.4
20260507001649 57 173 4.3 43.4 4.92 0.94 0.00 59 997.4
20260507001249 59 139 5.2 43.4 4.92 0.94 0.00 59 997.3
20260507000849 59 115 7.8 43.4 4.92 0.95 0.00 59 997.3
20260507000450 59 149 5.2 43.4 4.92 0.95 0.00 59 997.3
20260507000050 59 139 7.8 43.4 4.92 0.95 0.00 59 997.3
20260506235649 59 145 7.0 43.4 4.92 0.95 0.00 59 997.3
20260506235249 59 183 3.5 43.4 4.92 0.95 0.00 59 997.3
20260506234849 59 189 5.2 43.4 4.92 0.96 0.00 59 997.3
20260506234449 59 173 7.8 43.4 4.92 0.96 0.00 59 997.4
20260506234049 59 151 7.0 43.4 4.92 0.97 0.00 59 997.4
20260506233649 59 156 6.1 43.4 4.92 0.97 0.00 59 997.4
20260506233249 59 161 5.2 43.4 4.92 0.98 0.00 59 997.4
20260506232849 61 95 7.0 43.4 4.92 0.99 0.00 59 997.3
20260506232449 59 88 5.2 43.4 4.92 0.99 0.00 59 997.3
20260506232049 61 179 5.2 43.4 4.92 0.99 0.00 59 997.3
20260506231649 61 189 6.1 43.4 4.92 0.98 0.00 59 997.3
20260506231249 61 179 7.8 43.4 4.92 0.98 0.00 59 997.3
20260506230849 61 201 7.8 43.4 4.92 0.97 0.00 59 997.3
20260506230449 59 162 7.8 43.4 4.92 0.97 0.00 59 997.3
20260506230049 61 161 7.0 43.4 4.92 0.97 0.00 58 997.3
20260506225649 61 189 6.1 43.4 4.92 0.97 0.00 58 997.3
20260506224849 59 138 7.8 43.4 4.92 0.97 0.00 58 997.3
20260506224449 59 172 6.1 43.4 4.92 0.96 0.00 58 997.3
20260506224049 61 218 4.3 43.4 4.92 0.97 0.00 58 997.3
20260506223249 61 144 3.5 43.4 4.92 0.95 0.00 58 997.4
20260506222849 59 161 4.3 43.4 4.92 0.93 0.00 57 997.4
20260506222449 59 149 3.5 43.4 4.92 0.93 0.00 57 997.3
20260506222049 59 207 4.3 43.4 4.92 0.93 0.00 57 997.3
20260506221649 59 179 3.5 43.4 4.92 0.93 0.00 57 997.3
20260506221249 59 161 4.3 43.4 4.92 0.94 0.00 57 997.3
20260506220849 59 144 2.6 43.4 4.92 0.94 0.00 57 997.4
20260506220449 59 117 3.5 43.4 4.92 0.94 0.00 57 997.4
20260506215649 59 168 3.5 43.4 4.92 0.94 0.00 57 997.3
20260506215249 59 162 2.6 43.4 4.96 0.93 0.00 56 997.3
20260506214850 59 190 3.5 43.4 4.96 0.93 0.00 56 997.3
20260506214449 59 151 3.5 43.4 4.96 0.95 0.00 56 997.4
20260506214049 61 161 7.0 43.4 4.96 0.97 0.00 56 997.4
20260506213649 61 184 6.1 43.4 4.96 0.97 0.00 56 997.4
20260506213249 61 168 3.5 43.4 4.96 0.97 0.00 56 997.4
20260506212849 61 128 5.2 43.4 4.96 0.97 0.00 56 997.4
20260506212449 61 144 6.1 43.4 4.96 0.97 0.00 56 997.4
20260506212049 61 168 3.5 43.4 4.96 0.96 0.00 56 997.4
20260506211649 61 134 6.1 43.4 4.96 0.96 0.00 56 997.4
20260506211249 61 168 4.3 43.4 4.96 0.96 0.00 56 997.4
20260506210849 61 161 2.6 43.4 4.96 0.96 0.00 55 997.4
20260506210449 61 155 3.5 43.4 4.96 0.97 0.00 55 997.4
20260506210049 61 134 5.2 43.4 4.96 0.98 0.00 55 997.4
20260506205649 61 156 5.2 43.4 4.96 0.99 0.00 55 997.4
20260506205249 61 168 6.1 43.4 4.96 0.98 0.00 55 997.3
20260506204849 61 162 5.2 43.4 4.96 0.98 0.00 55 997.3
20260506204449 61 151 4.3 43.4 4.96 0.99 0.00 55 997.2
20260506204049 61 117 6.1 43.4 4.96 0.98 0.00 54 997.2
20260506203649 61 161 7.8 43.4 4.96 0.98 0.00 54 997.2
20260506203249 61 177 4.3 43.4 4.96 0.97 0.00 54 997.2
20260506202849 61 168 3.5 43.4 4.96 0.95 0.00 54 997.3
20260506202449 61 145 3.5 43.4 4.96 0.95 0.00 53 997.3
20260506202049 61 127 3.5 43.4 4.96 0.96 0.00 53 997.3
20260506201649 61 145 4.3 43.4 4.96 0.97 0.00 53 997.4
20260506201249 61 156 3.5 43.4 4.96 0.97 0.00 53 997.4
20260506200849 61 166 5.2 43.4 4.96 0.97 0.00 53 997.4
20260506200449 63 138 3.5 43.4 4.96 0.97 0.00 53 997.4
20260506200049 61 139 7.0 43.4 4.96 0.97 0.00 52 997.4
20260506195649 61 123 4.3 43.4 4.96 0.98 0.00 52 997.3
20260506194849 63 138 5.2 43.4 4.96 0.98 0.00 52 997.4
20260506194449 63 155 2.6 43.4 4.96 0.98 0.00 51 997.4
20260506194049 63 138 3.5 43.4 4.96 0.97 0.00 51 997.4
20260506193649 63 145 2.6 43.4 4.96 0.97 0.00 51 997.4
20260506193249 63 134 2.6 43.4 4.96 0.97 0.00 51 997.4
20260506192849 63 156 3.5 43.4 4.96 0.98 0.00 51 997.4
20260506192449 61 138 3.5 43.4 4.96 0.98 0.00 51 997.3
20260506192049 61 144 3.5 43.4 4.96 0.99 0.00 50 997.3
20260506191649 63 151 3.5 43.4 4.96 0.99 0.00 50 997.3
20260506191249 63 134 2.6 43.4 4.96 1.00 0.00 50 997.3
20260506190849 63 149 3.5 43.4 4.96 1.01 0.00 50 997.3
20260506190449 63 190 3.5 43.4 4.96 1.02 0.00 50 997.3
20260506190049 63 189 5.2 43.4 4.96 1.02 0.00 50 997.3
20260506185649 63 110 5.2 43.4 4.96 1.02 0.00 49 997.3
20260506185249 63 111 4.3 43.4 4.96 1.02 0.00 49 997.2
20260506184849 63 138 4.3 43.4 4.96 1.03 0.00 49 997.2
20260506184449 64 144 5.2 43.4 4.96 1.04 0.00 48 997.1
20260506184049 64 145 4.3 43.4 4.96 1.05 0.00 48 997.1
20260506183649 64 151 3.5 43.4 4.96 1.04 0.00 48 997.0
20260506183249 64 149 4.3 43.4 4.96 1.05 0.00 48 997.0
20260506182849 64 138 3.5 43.4 4.96 1.05 0.00 47 997.0
20260506182449 64 145 2.6 43.4 4.96 1.07 0.00 47 997.1
20260506182049 66 132 3.5 43.4 4.96 1.09 0.00 47 997.0
20260506181649 66 156 3.5 43.4 4.96 1.09 0.00 47 996.9
20260506181249 66 115 2.6 43.4 4.96 1.09 0.00 46 996.9
20260506180849 66 144 3.5 43.4 4.96 1.09 0.00 46 996.9
20260506180449 66 177 2.6 43.4 4.96 1.10 0.00 46 996.9
20260506180049 66 115 1.7 43.4 5.00 1.10 0.00 45 996.8
20260506175649 66 162 1.7 43.4 5.00 1.10 0.00 45 996.8
20260506175249 66 168 2.6 43.4 5.04 1.12 0.00 45 996.8
20260506174849 66 123 3.5 43.4 5.04 1.14 0.00 45 996.7
20260506174449 68 134 3.5 43.4 5.12 1.16 0.00 44 996.7
20260506174049 68 111 4.3 43.4 5.16 1.18 0.00 44 996.7
20260506173649 70 145 4.3 43.4 5.20 1.19 0.00 44 996.7
20260506173249 70 117 4.3 43.4 5.24 1.21 0.00 43 996.6
20260506172849 72 155 6.1 43.4 5.28 1.22 0.00 43 996.6
20260506172449 72 173 7.0 43.4 5.28 1.23 0.00 43 996.6
20260506172049 73 173 6.1 43.4 5.31 1.25 0.00 43 996.5
20260506171649 73 106 3.5 43.4 5.35 1.27 0.00 43 996.6
20260506171249 73 177 6.1 43.4 5.43 1.29 0.00 43 996.6
20260506170849 73 184 6.1 43.4 5.43 1.28 0.00 43 996.6
20260506170449 72 151 7.0 43.4 5.43 1.27 0.00 43 996.6
20260506170049 73 155 7.8 43.4 5.43 1.29 0.00 42 996.6
20260506165649 75 177 10.4 43.4 5.43 1.32 0.00 42 996.5
20260506165249 72 168 7.8 43.4 5.35 1.27 0.00 42 996.5
20260506164849 73 179 8.7 43.4 5.39 1.29 0.00 42 996.5
20260506164449 77 166 9.6 43.4 5.43 1.31 0.00 42 996.5
20260506164049 77 190 11.3 43.4 5.43 1.30 0.00 42 996.5
20260506163649 73 183 9.6 43.4 5.43 1.28 0.00 41 996.5
20260506163249 73 172 13.0 43.4 5.43 1.29 0.00 41 996.5
20260506162849 73 168 9.6 43.4 5.43 1.29 0.00 41 996.5
20260506162449 73 144 6.1 43.4 5.43 1.30 0.00 40 996.4
20260506162049 73 173 7.0 43.4 5.43 1.32 0.00 40 996.4
20260506161649 73 184 13.0 43.4 5.43 1.33 0.00 39 996.4
20260506161249 75 207 10.4 43.4 5.43 1.34 0.00 39 996.4
20260506160849 75 172 8.7 43.4 5.43 1.35 0.00 39 996.4
20260506160449 79 155 8.7 43.4 5.43 1.39 0.00 39 996.4
20260506160049 75 179 12.2 43.4 5.43 1.35 0.00 38 996.4
20260506155649 75 200 12.2 43.4 5.43 1.33 0.00 38 996.4
20260506155249 75 161 6.1 43.4 5.43 1.34 0.00 37 996.4
20260506154849 75 161 11.3 43.4 5.43 1.37 0.00 37 996.4
20260506154449 79 183 20.0 43.4 5.43 1.42 0.00 37 996.4
20260506154049 81 168 9.6 43.4 5.43 1.46 0.00 36 996.4
20260506153649 79 172 7.0 43.4 5.43 1.41 0.00 36 996.4
20260506153249 81 190 11.3 43.4 5.43 1.49 0.00 35 996.4
20260506152849 79 206 20.9 43.4 5.43 1.46 0.00 35 996.4
20260506152449 81 184 14.8 43.4 5.43 1.48 0.00 34 996.3
20260506152049 81 183 9.6 43.4 5.43 1.48 0.00 34 996.4
20260506151649 81 166 11.3 43.4 5.43 1.45 0.00 33 996.3
20260506151249 81 179 16.5 43.4 5.43 1.42 0.00 33 996.3
20260506150849 84 189 12.2 43.4 5.43 1.49 0.00 33 996.3
20260506150449 82 201 8.7 43.4 5.43 1.52 0.00 34 996.3
20260506150049 84 161 14.8 43.4 5.43 1.65 0.00 34 996.3
20260506145649 84 179 13.0 43.4 5.43 1.59 0.00 34 996.4
20260506145249 82 156 14.8 43.4 5.43 1.59 0.00 34 996.4
20260506144849 82 172 14.8 43.4 5.43 1.63 0.00 34 996.4
20260506144449 84 144 11.3 43.4 5.43 1.58 0.00 34 996.4
20260506144049 84 234 13.9 43.4 5.43 1.59 0.00 34 996.4
20260506143649 82 149 10.4 43.4 5.43 1.63 0.00 34 996.3
20260506143249 82 172 20.0 43.4 5.43 1.57 0.00 33 996.3
20260506142849 82 179 16.5 43.4 5.43 1.57 0.00 34 996.4
20260506142449 82 218 20.0 43.4 5.43 1.48 0.00 34 996.4
20260506141649 82 184 20.9 43.4 5.43 1.47 0.00 33 996.4
20260506141249 81 206 9.6 43.4 5.43 1.45 0.00 34 996.4
20260506140849 82 166 20.9 43.4 5.43 1.60 0.00 34 996.3
20260506140449 84 190 20.9 43.4 5.43 1.58 0.00 34 996.3
20260506140049 82 156 8.7 43.4 5.43 1.57 0.00 34 996.3
20260506135649 82 173 14.8 43.4 5.43 1.62 0.00 34 996.3
20260506135249 82 184 20.0 43.4 5.43 1.55 0.00 34 996.4
20260506134849 82 156 23.5 43.4 5.43 1.55 0.00 33 996.4
20260506134449 82 173 13.0 43.4 5.43 1.49 0.00 33 996.3
20260506134049 82 206 11.3 43.4 5.43 1.46 0.00 32 996.4
20260506133649 82 177 19.1 43.4 5.43 1.53 0.00 32 996.4
20260506133249 82 156 19.1 43.4 5.43 1.53 0.00 31 996.3
20260506132849 82 172 18.2 43.4 5.43 1.47 0.00 31 996.3
20260506132449 82 194 20.9 43.4 5.43 1.45 0.00 32 996.3
20260506132049 84 151 12.2 43.4 5.43 1.51 0.00 32 996.3
20260506131649 81 200 18.2 43.4 5.43 1.54 0.00 32 996.3
20260506131249 82 218 13.9 43.4 5.43 1.59 0.00 33 996.3
20260506130849 82 172 15.6 43.4 5.43 1.55 0.00 34 996.4
20260506130449 82 190 14.8 43.4 5.43 1.55 0.00 34 996.3
20260506130049 82 190 13.0 43.4 5.43 1.55 0.00 34 996.4
20260506125649 82 95 15.6 43.4 5.43 1.62 0.00 35 996.4
20260506125249 82 184 18.2 43.4 5.43 1.55 0.00 36 996.4
20260506124849 82 179 13.0 43.4 5.43 1.54 0.00 36 996.3
20260506124449 84 190 20.0 43.4 5.43 1.54 0.00 37 996.3
20260506124049 84 161 17.4 43.4 5.43 1.56 0.00 38 996.4
20260506123649 84 207 14.8 43.4 5.43 1.57 0.00 39 996.4
20260506123249 82 156 17.4 43.4 5.43 1.54 0.00 40 996.4
20260506122849 82 177 18.2 43.4 5.43 1.59 0.00 41 996.4
20260506122449 84 161 13.9 43.4 5.43 1.60 0.00 42 996.4
20260506122049 82 194 14.8 43.4 5.43 1.58 0.00 42 996.4
20260506121649 84 161 13.0 43.4 5.43 1.56 0.00 41 996.5
20260506121249 82 155 17.4 43.4 5.43 1.55 0.00 41 996.6
20260506120849 82 156 11.3 43.4 5.43 1.55 0.00 41 996.6
20260506120448 84 151 9.6 43.4 5.43 1.52 0.00 41 996.6
20260506120048 82 128 11.3 43.4 5.43 1.51 0.00 41 996.6
20260506115649 81 156 14.8 43.4 5.43 1.50 0.00 40 996.7
20260506115249 81 183 20.0 43.4 5.43 1.48 0.00 40 996.7
20260506114849 82 206 33.0 43.4 5.43 1.45 0.00 41 996.7
20260506114448 84 134 9.6 43.4 5.43 1.52 0.00 41 996.7
20260506114048 81 173 23.5 43.4 5.43 1.48 0.00 41 996.7
20260506113649 81 155 20.9 43.4 5.43 1.48 0.00 41 996.7
20260506113248 82 183 14.8 43.4 5.43 1.49 0.00 41 996.6
20260506112849 82 151 9.6 43.4 5.43 1.50 0.00 41 996.6
20260506112448 81 168 19.1 43.4 5.43 1.46 0.00 41 996.7
20260506112049 81 156 19.1 43.4 5.43 1.47 0.00 41 996.6
20260506111648 81 224 23.5 43.4 5.43 1.47 0.00 41 996.7
20260506111249 81 151 30.4 43.4 5.43 1.49 0.00 41 996.7
20260506110848 81 161 13.9 43.4 5.43 1.49 0.00 41 996.7
20260506110448 81 149 17.4 43.4 5.43 1.50 0.00 41 996.6
20260506110048 81 162 7.8 43.4 5.43 1.49 0.00 41 996.7
20260506105649 82 161 14.8 43.4 5.43 1.49 0.00 41 996.6
20260506105249 82 179 23.5 43.4 5.43 1.48 0.00 41 996.7
20260506104849 81 161 15.6 43.4 5.43 1.48 0.00 40 996.7
20260506104449 81 196 17.4 43.4 5.43 1.48 0.00 41 996.7
20260506104048 82 184 15.6 43.4 5.43 1.49 0.00 41 996.7
20260506103648 79 145 16.5 43.4 5.43 1.45 0.00 41 996.7
20260506103249 81 184 17.4 43.4 5.43 1.46 0.00 41 996.7
20260506102848 81 189 24.3 43.4 5.43 1.48 0.00 41 996.7
20260506102448 81 173 22.6 43.4 5.43 1.49 0.00 41 996.6
20260506102048 81 134 28.7 43.4 5.43 1.51 0.00 41 996.6
20260506101648 79 9 18.2 43.4 5.43 1.48 0.00 42 996.6
20260506101248 81 173 13.9 43.4 5.43 1.48 0.00 42 996.7
20260506100848 82 145 16.5 43.4 5.43 1.50 0.00 42 996.7
20260506100449 81 190 27.8 43.4 5.43 1.47 0.00 43 996.7
20260506100049 77 156 20.0 43.4 5.43 1.45 0.00 43 996.7
20260506095648 77 161 23.5 43.4 5.43 1.46 0.00 43 996.7
20260506095248 79 194 24.3 43.4 5.43 1.41 0.00 42 996.7
20260506094849 75 145 27.8 43.4 5.43 1.33 0.00 42 996.7
20260506094448 73 194 28.7 43.4 5.43 1.33 0.00 43 996.7
20260506094049 75 179 20.0 43.4 5.43 1.34 0.00 43 996.7
20260506093649 75 196 15.6 43.4 5.43 1.35 0.00 43 996.7
20260506092849 73 190 13.0 43.4 5.43 1.34 0.00 42 996.7
20260506092449 73 173 20.0 43.4 5.43 1.36 0.00 42 996.7
20260506092049 75 151 10.4 43.4 5.43 1.38 0.00 42 996.7
20260506091649 73 166 16.5 43.4 5.43 1.37 0.00 42 996.6
20260506091248 73 161 13.9 43.4 5.43 1.35 0.00 41 996.7
20260506090849 73 134 25.2 43.4 5.43 1.35 0.00 41 996.7
20260506090448 73 168 22.6 43.4 5.43 1.36 0.00 41 996.7
20260506085648 75 156 12.2 43.4 5.43 1.39 0.00 41 996.8
20260506085248 77 172 12.2 43.4 5.43 1.42 0.00 42 996.8
20260506084848 77 156 24.3 43.4 5.43 1.44 0.00 43 996.7
20260506084448 82 151 13.0 43.4 5.43 1.49 0.00 42 996.7
20260506084048 81 106 14.8 43.4 5.43 1.40 0.00 41 996.8
20260506083649 73 156 15.6 43.4 5.43 1.31 0.00 40 996.8
20260506083248 73 155 23.5 43.4 5.43 1.33 0.00 41 996.7
20260506082848 77 161 24.3 43.4 5.43 1.41 0.00 41 996.7
20260506082448 77 155 20.0 43.4 5.43 1.40 0.00 41 996.7
20260506082048 79 128 12.2 43.4 5.43 1.41 0.00 40 996.7
20260506081649 75 168 10.4 43.4 5.43 1.37 0.00 40 996.8
20260506081248 75 121 18.2 43.4 5.43 1.35 0.00 40 996.8
20260506080848 77 145 9.6 43.4 5.43 1.43 0.00 41 996.8
20260506080448 81 156 18.2 43.4 5.43 1.45 0.00 41 996.8
20260506073248 79 173 14.8 43.4 5.43 1.39 0.00 41 996.8
20260506072848 79 173 14.8 43.4 5.43 1.38 0.00 41 996.8
20260506072448 77 200 17.4 43.4 5.43 1.37 0.00 42 996.8
20260506072048 79 161 21.7 43.4 5.43 1.37 0.00 42 996.8
20260506071648 79 144 7.8 43.4 5.43 1.37 0.00 42 996.8
20260506071248 79 156 9.6 43.4 5.43 1.36 0.00 42 996.8
20260506070448 75 162 24.3 43.4 5.43 1.33 0.00 42 996.8
20260506062448 73 134 15.6 43.4 5.43 1.26 0.00 43 996.9
20260506062048 73 117 11.3 43.4 5.43 1.26 0.00 43 996.9
20260506061648 72 111 14.8 43.4 5.43 1.26 0.00 42 996.9
20260506061248 72 172 13.0 43.4 5.43 1.23 0.00 43 996.9
20260506060848 73 111 12.2 43.4 5.43 1.26 0.00 43 997.0
20260506060448 75 179 6.1 43.4 5.43 1.31 0.00 43 997.0
20260506051248 68 128 4.3 43.4 5.43 1.20 0.00 47 997.2
20260506050848 66 100 6.1 43.4 5.43 1.26 0.00 47 997.2
20260506050448 66 166 6.1 43.4 5.43 1.24 0.00 46 997.2
20260506044848 66 111 3.5 43.4 5.43 1.22 0.00 49 997.3
20260506044448 64 149 5.2 43.4 5.43 1.22 0.00 49 997.3
20260506044048 64 104 6.1 43.4 5.43 1.23 0.00 50 997.2
20260506043648 63 111 4.3 43.4 5.39 1.20 0.00 52 997.3
20260506043248 63 123 4.3 43.4 5.39 1.21 0.00 53 997.4
20260506042848 63 145 1.7 43.4 5.35 1.26 0.00 55 997.4
20260506042448 63 121 2.6 43.4 5.35 1.26 0.00 56 997.4
20260506042048 61 144 2.6 43.4 5.31 1.23 0.00 57 997.4
20260506041648 61 138 3.5 43.4 5.31 1.20 0.00 58 997.4
20260506041248 59 145 2.6 43.4 5.28 1.18 0.00 59 997.4
20260506040848 59 149 3.5 43.4 5.28 1.14 0.00 60 997.4
20260506040048 57 156 4.3 43.4 5.24 1.10 0.00 61 997.4
20260506035648 57 139 4.3 43.4 5.20 1.11 0.00 61 997.3
20260506035248 57 111 3.5 43.4 5.20 1.11 0.00 61 997.3
20260506034848 57 177 4.3 43.4 5.16 1.04 0.00 61 997.3
20260506034448 57 151 5.2 43.4 5.16 0.99 0.00 61 997.3
20260506034048 57 155 4.3 43.4 5.12 0.96 0.00 61 997.4
20260506033648 57 177 4.3 43.4 5.08 0.98 0.00 61 997.4
20260506033248 57 123 6.1 43.4 5.04 0.96 0.00 61 997.3
20260506032848 57 121 2.6 43.4 5.00 0.93 0.00 61 997.3
20260506032448 55 156 3.5 43.4 4.96 0.92 0.00 60 997.4
20260506032048 55 151 3.5 43.4 4.96 0.90 0.00 60 997.4
20260506031648 55 184 3.5 43.4 4.92 0.88 0.00 60 997.4
20260506031248 55 156 4.3 43.4 4.92 0.86 0.00 60 997.5
20260506030848 55 144 6.1 43.4 4.92 0.86 0.00 60 997.5
20260506030448 55 144 5.2 43.4 4.92 0.86 0.00 60 997.5
20260506030048 55 177 5.2 43.4 4.92 0.84 0.00 60 997.5
20260506025648 55 132 5.2 43.4 4.88 0.86 0.00 60 997.5
20260506025248 55 177 5.2 43.4 4.88 0.86 0.00 60 997.5
20260506024848 55 183 3.5 43.4 4.88 0.85 0.00 60 997.5
20260506024448 55 145 5.2 43.4 4.88 0.85 0.00 60 997.5
20260506024048 55 161 3.5 43.4 4.88 0.85 0.00 59 997.5
20260506023648 55 162 7.0 43.4 4.88 0.85 0.00 59 997.5
20260506023248 57 128 5.2 43.4 4.88 0.88 0.00 59 997.4
20260506022848 57 166 7.8 43.4 4.88 0.89 0.00 59 997.5
20260506022448 57 145 5.2 43.4 4.88 0.88 0.00 59 997.4
20260506022048 57 173 6.1 43.4 4.92 0.87 0.00 59 997.4
20260506021648 57 162 6.1 43.4 4.88 0.88 0.00 59 997.5
20260506021248 55 194 8.7 43.4 4.92 0.86 0.00 59 997.5
20260506020848 54 179 4.3 43.4 4.92 0.85 0.00 59 997.5
20260506020448 55 173 5.2 43.4 4.92 0.86 0.00 59 997.5
20260506020048 55 190 4.3 43.4 4.92 0.86 0.00 58 997.5